This is the latest recevied weather packets stored in our database for station/object KB9HUO. If no packets are shown the sender has not sent any weather packets the latest 10 day(s).
| Time | Temp. | Humidity | Pressure | Rain* | Wind** | Luminosity | Snow |
|---|---|---|---|---|---|---|---|
| 1788016851 | 25.56° C | 73% | 1023.2 hPa | 0 mm | - | 84 W/m² | - |
| 1788016549 | 25.56° C | 74% | 1023.2 hPa | 0 mm | - | 70 W/m² | - |
| 1788016244 | 25° C | 75% | 1023.2 hPa | 0 mm | - | 59 W/m² | - |
| 1788015943 | 24.44° C | 76% | 1023.1 hPa | 0 mm | - | 57 W/m² | - |
| 1788015639 | 24.44° C | 77% | 1023.2 hPa | 0 mm | - | 56 W/m² | - |
| 1788015343 | 23.89° C | 80% | 1023.2 hPa | 0 mm | - | 55 W/m² | - |
| 1788015038 | 23.89° C | 80% | 1023.3 hPa | 0 mm | - | 58 W/m² | - |
| 1788014731 | 23.33° C | 81% | 1023.3 hPa | 0 mm | - | 53 W/m² | - |
| 1788014427 | 23.33° C | 81% | 1023.4 hPa | 0 mm | - | 59 W/m² | - |
| 1788014122 | 22.78° C | 85% | 1023.3 hPa | 0 mm | - | 51 W/m² | - |
| 1788013821 | 22.22° C | 86% | 1023.2 hPa | 0 mm | - | 51 W/m² | - |
| 1788013520 | 21.67° C | 85% | 1023.2 hPa | 0 mm | - | 49 W/m² | - |
| 1788013215 | 21.67° C | 87% | 1023.1 hPa | 0 mm | - | 48 W/m² | - |
| 1788012915 | 21.11° C | 87% | 1023.1 hPa | 0 mm | - | 47 W/m² | - |
| 1788012609 | 21.11° C | 88% | 1023.1 hPa | 0 mm | - | 46 W/m² | - |
| 1788012304 | 20.56° C | 90% | 1023.2 hPa | 0 mm | - | 45 W/m² | - |
| 1788012003 | 20° C | 90% | 1023.2 hPa | 0 mm | - | 44 W/m² | - |
| 1788011702 | 20° C | 92% | 1022.8 hPa | 0 mm | - | 44 W/m² | - |
| 1788011398 | 19.44° C | 95% | 1022.9 hPa | 0 mm | - | 43 W/m² | - |
| 1788011097 | 18.89° C | 97% | 1023 hPa | 0 mm | - | 42 W/m² | - |
| 1788010792 | 18.89° C | 98% | 1023 hPa | 0 mm | - | 43 W/m² | - |
| 1788010491 | 18.33° C | 98% | 1023 hPa | 0 mm | - | 39 W/m² | - |
| 1788010186 | 18.33° C | 99% | 1022.8 hPa | 0 mm | - | 38 W/m² | - |
| 1788009880 | 17.78° C | 99% | 1023.2 hPa | 0 mm | - | 37 W/m² | - |
| 1788009577 | 17.78° C | 99% | 1023 hPa | 0 mm | - | 37 W/m² | - |
* Rain latest hour (hover to see other rain measurements)
** Current wind speed in m/s (hover to see current wind gust speed)